This is the latest recevied weather packets stored in our database for station/object SP5IZJ-2. If no packets are shown the sender has not sent any weather packets the latest 10 day(s).
| Time | Temp. | Humidity | Pressure | Rain* | Wind** | Luminosity | Snow |
|---|---|---|---|---|---|---|---|
| 1777494281 | 0° C | 64% | 1022.7 hPa | 0 mm | - | - | - |
| 1777493861 | 0° C | 63% | 1022.7 hPa | 0 mm | - | - | - |
| 1777493442 | 0.56° C | 62% | 1022.6 hPa | 0 mm | - | - | - |
| 1777493022 | 0.56° C | 61% | 1022.3 hPa | 0 mm | - | - | - |
| 1777492609 | 0.56° C | 59% | 1022.5 hPa | 0 mm | - | - | - |
| 1777492182 | 1.11° C | 58% | 1022.6 hPa | 0 mm | - | - | - |
| 1777491762 | 1.11° C | 57% | 1022.5 hPa | 0 mm | - | - | - |
| 1777491354 | 1.11° C | 56% | 1022.5 hPa | 0 mm | - | - | - |
| 1777490128 | 2.22° C | 53% | 1022.3 hPa | 0 mm | - | - | - |
| 1777489667 | 2.22° C | 52% | 1022.3 hPa | 0 mm | - | - | - |
| 1777489274 | 2.78° C | 52% | 1022.2 hPa | 0 mm | - | - | - |
| 1777488835 | 2.78° C | 51% | 1022.2 hPa | 0 mm | - | - | - |
| 1777487984 | 3.33° C | 51% | 1022.1 hPa | 0 mm | - | - | - |
| 1777487609 | 3.89° C | 49% | 1022 hPa | 0 mm | - | - | - |
| 1777486732 | 4.44° C | 47% | 1021.9 hPa | 0 mm | - | - | - |
| 1777485885 | 5° C | 45% | 1021.8 hPa | 0 mm | - | - | - |
| 1777485465 | 5.56° C | 45% | 1021.9 hPa | 0 mm | - | - | - |
| 1777485049 | 6.11° C | 43% | 1021.8 hPa | 0 mm | - | - | - |
| 1777484625 | 6.67° C | 40% | 1021.6 hPa | 0 mm | - | - | - |
| 1777484205 | 8.33° C | 39% | 1021.7 hPa | 0 mm | - | - | - |
| 1777483366 | 11.11° C | 36% | 1021.6 hPa | 0 mm | - | - | - |
| 1777482526 | 12.22° C | 35% | 1021.3 hPa | 0 mm | - | - | - |
| 1777482106 | 12.78° C | 34% | 1021.4 hPa | 0 mm | - | - | - |
| 1777481686 | 14.44° C | 32% | 1021.3 hPa | 0 mm | - | - | - |
| 1777481267 | 13.89° C | 32% | 1021.2 hPa | 0 mm | - | - | - |
* Rain latest hour (hover to see other rain measurements)
** Current wind speed in m/s (hover to see current wind gust speed)